When you browse on this site, cookies collect data to enhance your experience and personalize the content and advertising you see.
Visit our Privacy Policy to learn more. By continuing to use the site, you agree to this use of cookies and data.
  • In Latvia
  • List of Countries
  • For 7 days
  • Water Temperature
  • Weather Map
  • Weather Widgets
  • user-avatar
    Login

    Hourly Weather Larne

    Today, 21 September, Saturday

    Time Temperature Precipitation Wind Pressure Humidity
    00:00 +15°C° 0 mm 9 mps 757 mmHg 86%
    01:00 +13°C° 0 mm 9 mps 756 mmHg 83%
    02:00 +13°C° 0 mm 9 mps 756 mmHg 81%
    03:00 +12°C° 0 mm 9 mps 755 mmHg 78%
    04:00 +12°C° 0 mm 10 mps 755 mmHg 79%
    05:00 +12°C° 0 mm 10 mps 754 mmHg 80%
    06:00 +12°C° 0 mm 10 mps 754 mmHg 81%
    07:00 +12°C° 0 mm 10 mps 754 mmHg 79%
    08:00 +13°C° 0 mm 10 mps 753 mmHg 77%
    09:00 +14°C° 0 mm 10 mps 753 mmHg 75%
    10:00 +14°C° 0 mm 10 mps 753 mmHg 73%
    11:00 +16°C° 0 mm 10 mps 752 mmHg 72%
    12:00 +17°C° 0 mm 10 mps 752 mmHg 70%
    13:00 +17°C° 0 mm 9 mps 751 mmHg 70%
    14:00 +17°C° 0 mm 9 mps 751 mmHg 70%
    15:00 +17°C° 0 mm 9 mps 751 mmHg 71%
    16:00 +17°C° 0.1 mm 9 mps 750 mmHg 74%
    17:00 +16°C° 0.1 mm 8 mps 750 mmHg 78%
    18:00 +15°C° 0.1 mm 7 mps 750 mmHg 81%
    19:00 +16°C° 0 mm 8 mps 750 mmHg 81%
    20:00 +16°C° 0 mm 8 mps 750 mmHg 80%
    21:00 +16°C° 0 mm 8 mps 749 mmHg 80%
    22:00 +15°C° 0.3 mm 8 mps 749 mmHg 84%
    23:00 +15°C° 0.3 mm 8 mps 749 mmHg 88%

    Tomorrow, 22 September, Sunday

    Time Temperature Precipitation Wind Pressure Humidity
    00:00 +15°C° 0.3 mm 8 mps 748 mmHg 92%
    01:00 +15°C° 1.4 mm 8 mps 748 mmHg 93%
    02:00 +15°C° 1.4 mm 8 mps 747 mmHg 95%
    03:00 +15°C° 1.4 mm 7 mps 747 mmHg 96%
    04:00 +15°C° 0.3 mm 7 mps 747 mmHg 96%
    05:00 +15°C° 0.3 mm 7 mps 747 mmHg 97%
    06:00 +15°C° 0.3 mm 7 mps 746 mmHg 97%
    07:00 +15°C° 1.1 mm 6 mps 746 mmHg 97%
    08:00 +15°C° 1.1 mm 5 mps 746 mmHg 98%
    09:00 +15°C° 1.1 mm 5 mps 746 mmHg 98%
    10:00 +15°C° 0.4 mm 5 mps 747 mmHg 96%
    11:00 +15°C° 0.4 mm 4 mps 747 mmHg 95%
    12:00 +15°C° 0.4 mm 4 mps 747 mmHg 94%
    13:00 +17°C° 0.2 mm 4 mps 747 mmHg 92%
    14:00 +17°C° 0.2 mm 4 mps 747 mmHg 90%
    15:00 +18°C° 0.2 mm 4 mps 747 mmHg 88%
    16:00 +17°C° 0.2 mm 4 mps 748 mmHg 89%
    17:00 +15°C° 0.2 mm 4 mps 748 mmHg 91%
    18:00 +16°C° 0.2 mm 3 mps 748 mmHg 92%
    19:00 +14°C° 0 mm 3 mps 748 mmHg 93%
    20:00 +13°C° 0 mm 3 mps 749 mmHg 94%
    21:00 +12°C° 0 mm 3 mps 749 mmHg 95%
    22:00 +12°C° 0.2 mm 3 mps 749 mmHg 95%
    23:00 +12°C° 0.2 mm 3 mps 749 mmHg 95%

    Day after tomorrow, 23 September, Monday

    Time Temperature Precipitation Wind Pressure Humidity
    00:00 +13°C° 0.2 mm 3 mps 750 mmHg 95%
    01:00 +12°C° 0 mm 3 mps 750 mmHg 95%
    02:00 +11°C° 0 mm 3 mps 750 mmHg 95%
    03:00 +12°C° 0 mm 2 mps 750 mmHg 95%
    04:00 +10°C° 0 mm 2 mps 750 mmHg 95%
    05:00 +9°C° 0 mm 2 mps 750 mmHg 95%
    06:00 +9°C° 0 mm 2 mps 750 mmHg 95%
    07:00 +10°C° 0 mm 3 mps 750 mmHg 92%
    08:00 +11°C° 0 mm 3 mps 750 mmHg 89%
    09:00 +12°C° 0 mm 4 mps 750 mmHg 86%
    10:00 +13°C° 0 mm 5 mps 750 mmHg 84%
    11:00 +14°C° 0 mm 6 mps 749 mmHg 82%
    12:00 +15°C° 0 mm 7 mps 749 mmHg 80%
    13:00 +15°C° 0.1 mm 8 mps 748 mmHg 83%
    14:00 +13°C° 0.1 mm 8 mps 748 mmHg 86%
    15:00 +12°C° 0.1 mm 9 mps 747 mmHg 90%
    16:00 +12°C° 1.1 mm 9 mps 747 mmHg 91%
    17:00 +12°C° 1.1 mm 10 mps 746 mmHg 93%
    18:00 +12°C° 1.1 mm 10 mps 746 mmHg 94%
    19:00 +12°C° 0.3 mm 10 mps 745 mmHg 95%
    20:00 +12°C° 0.3 mm 9 mps 745 mmHg 95%
    21:00 +12°C° 0.3 mm 8 mps 745 mmHg 96%
    22:00 +14°C° 0.5 mm 7 mps 744 mmHg 96%
    23:00 +14°C° 0.5 mm 6 mps 744 mmHg 97%

    24 September, Tuesday

    Time Temperature Precipitation Wind Pressure Humidity
    00:00 +14°C° 0.5 mm 5 mps 744 mmHg 98%
    01:00 +14°C° 0.1 mm 5 mps 743 mmHg 98%
    02:00 +13°C° 0.1 mm 4 mps 743 mmHg 98%
    03:00 +13°C° 0.1 mm 4 mps 743 mmHg 98%
    04:00 +13°C° 0 mm 4 mps 743 mmHg 98%
    05:00 +13°C° 0 mm 3 mps 742 mmHg 97%
    06:00 +12°C° 0 mm 3 mps 742 mmHg 97%
    07:00 +13°C° 0 mm 3 mps 742 mmHg 96%
    08:00 +15°C° 0 mm 2 mps 742 mmHg 95%
    09:00 +15°C° 0 mm 2 mps 742 mmHg 93%
    10:00 +16°C° 0 mm 2 mps 742 mmHg 90%
    11:00 +16°C° 0 mm 2 mps 742 mmHg 87%
    12:00 +17°C° 0 mm 3 mps 743 mmHg 84%
    13:00 +17°C° 0.1 mm 3 mps 743 mmHg 84%
    14:00 +17°C° 0.1 mm 3 mps 743 mmHg 83%
    15:00 +17°C° 0.1 mm 4 mps 743 mmHg 83%
    16:00 +15°C° 0.1 mm 4 mps 743 mmHg 86%
    17:00 +14°C° 0.1 mm 4 mps 743 mmHg 90%
    18:00 +13°C° 0.1 mm 4 mps 743 mmHg 93%
    19:00 +12°C° 0 mm 5 mps 743 mmHg 94%
    20:00 +12°C° 0 mm 5 mps 743 mmHg 94%
    21:00 +10°C° 0 mm 5 mps 743 mmHg 95%
    22:00 +10°C° 0 mm 5 mps 743 mmHg 94%
    23:00 +10°C° 0 mm 5 mps 743 mmHg 94%

    25 September, Wednesday

    Time Temperature Precipitation Wind Pressure Humidity
    00:00 +12°C° 0 mm 5 mps 743 mmHg 93%
    01:00 +11°C° 0 mm 4 mps 743 mmHg 93%
    02:00 +11°C° 0 mm 4 mps 743 mmHg 92%
    03:00 +11°C° 0 mm 3 mps 743 mmHg 92%
    04:00 +10°C° 0 mm 4 mps 743 mmHg 93%
    05:00 +8°C° 0 mm 4 mps 743 mmHg 95%
    06:00 +8°C° 0 mm 4 mps 743 mmHg 96%
    07:00 +10°C° 0 mm 3 mps 743 mmHg 94%
    08:00 +11°C° 0 mm 3 mps 743 mmHg 92%
    09:00 +12°C° 0 mm 3 mps 743 mmHg 91%
    10:00 +13°C° 0 mm 3 mps 742 mmHg 91%
    11:00 +13°C° 0 mm 4 mps 742 mmHg 90%
    12:00 +14°C° 0 mm 5 mps 742 mmHg 90%
    13:00 +14°C° 0.1 mm 5 mps 742 mmHg 92%
    14:00 +14°C° 0.1 mm 5 mps 741 mmHg 94%
    15:00 +14°C° 0.1 mm 5 mps 741 mmHg 96%
    16:00 +14°C° 0.2 mm 5 mps 740 mmHg 96%
    17:00 +14°C° 0.2 mm 4 mps 740 mmHg 97%
    18:00 +14°C° 0.2 mm 4 mps 739 mmHg 97%
    19:00 +14°C° 0.7 mm 5 mps 739 mmHg 97%
    20:00 +14°C° 0.7 mm 5 mps 738 mmHg 98%
    21:00 +14°C° 0.7 mm 5 mps 738 mmHg 98%
    22:00 +14°C° 1.7 mm 6 mps 737 mmHg 97%
    23:00 +14°C° 1.7 mm 6 mps 737 mmHg 95%

    26 September, Thursday

    Time Temperature Precipitation Wind Pressure Humidity
    00:00 +14°C° 1.7 mm 7 mps 736 mmHg 94%
    01:00 +14°C° 0.1 mm 6 mps 736 mmHg 95%
    02:00 +13°C° 0.1 mm 6 mps 736 mmHg 96%
    03:00 +12°C° 0.1 mm 5 mps 736 mmHg 96%
    04:00 +12°C° 0.3 mm 5 mps 736 mmHg 96%
    05:00 +11°C° 0.3 mm 4 mps 736 mmHg 95%
    06:00 +11°C° 0.3 mm 4 mps 736 mmHg 95%
    07:00 +11°C° 0.5 mm 4 mps 736 mmHg 93%
    08:00 +12°C° 0.5 mm 5 mps 737 mmHg 91%
    09:00 +12°C° 0.5 mm 5 mps 737 mmHg 90%
    10:00 +13°C° 0.1 mm 6 mps 737 mmHg 86%
    11:00 +13°C° 0.1 mm 6 mps 737 mmHg 83%
    12:00 +14°C° 0.1 mm 6 mps 738 mmHg 79%
    13:00 +14°C° 0.3 mm 6 mps 738 mmHg 80%
    14:00 +14°C° 0.3 mm 6 mps 737 mmHg 81%
    15:00 +14°C° 0.3 mm 6 mps 737 mmHg 82%
    16:00 +13°C° 0.3 mm 6 mps 737 mmHg 85%
    17:00 +11°C° 0.3 mm 6 mps 737 mmHg 88%
    18:00 +11°C° 0.3 mm 6 mps 736 mmHg 91%
    19:00 +11°C° 0.8 mm 7 mps 736 mmHg 92%
    20:00 +11°C° 0.8 mm 8 mps 736 mmHg 93%
    21:00 +11°C° 0.8 mm 9 mps 736 mmHg 94%
    22:00 +11°C° 0.1 mm 9 mps 736 mmHg 94%
    23:00 +11°C° 0.1 mm 9 mps 736 mmHg 93%
    Show more